Location: Vancouver
(49.2500°N, 123.1330°W)
Time: 05:53:03
(UTC-08:00)

Transit 2A Rocket - Visible Passes

Search period start: 23 February 2017 00:00
Search period end: 05 March 2017 00:00
Orbit: 595 x 910 km, 66.7° (Epoch: 22 February)

Date Brightness Start Highest point End Pass type
(mag) Time Alt. Az. Time Alt. Az. Time Alt. Az.
23 Feb 7.3 03:46:24 13° N 03:46:24 13° N 03:47:03 10° NNE visible
25 Feb 7.2 04:03:33 11° N 04:03:33 11° N 04:04:04 10° N visible
26 Feb 7.5 03:22:09 10° N 03:22:09 10° N 03:22:12 10° N visible
01 Mar 7.0 06:21:55 10° N 06:24:28 15° NNE 06:27:01 10° ENE visible
02 Mar 7.2 05:40:06 10° N 05:41:37 12° NNE 05:43:09 10° NE visible
04 Mar 6.9 05:57:04 10° NNW 06:00:08 18° NNE 06:03:13 10° ENE visible
